[[{"header":{"parameterUnit":"m.s-1","parameterCategory":2,"la1":30.2991,"la2":30.254,"lo1":-89.0895,"lo2":-89.0444,"dy":0.0017,"dx":0.0017,"nx":28,"ny":28,"refTime":"2024-12-17T03:00:00:Z","depth":"0","parameterNumber":2,"parameterNumberName":"U-component_of_CURRENTS"},"data":[0,0,0,0,0,0,0,0,0,0,0,0,0,0,0,0,0,0,0,0,0,0,0,0,0,0,0,0,0,0,0,0,0,0,0,0,0,0,0,0,0,0,0,0,0,0,0,0,0,0,0,0,0,0,0,0,0,0,-0.3437,-0.3438,0,-0.3503,-0.3503,-0.3504,-0.3446,-0.3444,-0.3442,-0.344,-0.3398,-0.3399,-0.34,0,0,0,0,0,0,0,0,0,0,0,0,0,-0.3286,-0.3288,-0.3437,-0.3438,-0.3439,-0.3503,-0.3503,-0.3504,-0.3447,-0.3444,-0.3442,-0.3439,-0.3398,-0.3399,-0.34,0,0,0,0,0,0,0,0,0,0,0,0,0,-0.3349,-0.3289,-0.3437,-0.3421,-0.342,-0.3503,-0.3503,-0.3504,-0.3447,-0.3444,-0.3441,-0.3438,-0.3398,-0.3399,-0.34,-0.3471,0,0,-0.3404,-0.3405,0,0,0,0,0,0,0,0,-0.3345,-0.3354,-0.3422,-0.3422,-0.3422,-0.3466,-0.3435,-0.3489,-0.3448,-0.3434,-0.344,-0.3437,-0.3415,-0.3415,-0.3432,-0.3469,-0.3467,-0.3404,-0.3405,-0.3406,-0.3406,0,0,0,0,0,0,0,-0.3341,-0.3351,-0.346,-0.3424,-0.3423,-0.3418,-0.3423,-0.3445,-0.3437,-0.3435,-0.3432,-0.3445,-0.3413,-0.3431,-0.343,-0.3466,-0.3404,-0.3405,-0.3406,-0.3407,-0.3481,-0.3482,0,0,0,0,0,0,-0.3342,-0.3347,-0.3458,-0.3462,-0.3378,-0.3424,-0.3429,-0.3452,-0.3439,-0.3436,-0.3447,-0.3442,-0.343,-0.3428,-0.3428,-0.3433,-0.3406,-0.3407,-0.3407,-0.348,-0.3481,-0.3483,0,0,0,0,0,0,-0.3338,-0.3352,-0.3455,-0.3407,-0.342,-0.343,-0.3456,-0.3455,-0.346,-0.345,-0.3443,-0.3451,-0.3427,-0.3426,-0.3441,-0.3433,-0.3407,-0.3408,-0.3478,-0.348,-0.3482,-0.3492,0,0,0,0,0,0,-0.3334,-0.335,-0.3365,-0.3408,-0.3423,-0.3489,-0.346,-0.3459,-0.3475,-0.3468,-0.3452,-0.3445,-0.3425,-0.344,-0.3442,-0.3434,-0.3409,-0.3477,-0.3479,-0.3481,-0.349,-0.3494,-0.3497,0,0,0,0,0,-0.3329,-0.3357,-0.3366,-0.3379,-0.3445,-0.349,-0.3497,-0.349,-0.3478,-0.3482,-0.3477,-0.3445,-0.3455,-0.3443,-0.3445,-0.3437,-0.3476,-0.3478,-0.3481,-0.3488,-0.3493,-0.3497,0,0,0,0,0,0,-0.3298,-0.3356,-0.3365,-0.341,-0.3442,-0.348,-0.3489,-0.3499,-0.3506,-0.3493,-0.3476,-0.3471,-0.3476,-0.3473,-0.346,-0.3468,-0.3455,-0.3459,-0.346,-0.3464,-0.3468,-0.3457,-0.341,0,0,0,0,0,-0.3305,-0.3333,-0.3389,-0.3419,-0.3438,-0.3469,-0.3487,-0.3492,-0.3508,-0.3507,-0.3502,-0.3497,-0.3499,-0.3492,-0.3496,-0.3517,-0.3496,-0.3511,-0.3515,-0.3517,-0.3513,-0.3508,-0.351,-0.3492,-0.3492,-0.3492,0,0,-0.3299,-0.3336,-0.335,-0.3413,-0.3436,-0.3466,-0.3469,-0.3499,-0.3513,-0.3505,-0.3513,-0.3515,-0.3511,-0.3518,-0.3519,-0.3507,-0.3508,-0.3521,-0.3523,-0.3517,-0.3511,-0.3513,-0.3514,-0.3493,-0.3493,-0.3493,0,0,-0.3294,-0.3338,-0.3354,-0.339,-0.3436,-0.3462,-0.3473,-0.3517,-0.3519,-0.3552,-0.3537,-0.3541,-0.3555,-0.3541,-0.3538,-0.3575,-0.3533,-0.3573,-0.3574,-0.357,-0.357,-0.3571,-0.3522,-0.3519,-0.3568,-0.3568,-0.3568,0,-0.328,-0.3319,-0.3364,-0.3393,-0.3418,-0.3459,-0.3482,-0.3507,-0.3547,-0.3557,-0.3545,-0.3573,-0.3562,-0.3568,-0.3567,-0.3577,-0.3558,-0.3552,-0.3571,-0.3572,-0.3572,-0.3523,-0.3518,-0.3568,-0.3568,-0.3568,-0.3568,0,-0.3287,-0.3321,-0.3335,-0.3382,-0.3418,-0.3446,-0.3496,-0.3523,-0.3539,-0.3561,-0.3582,-0.3585,-0.3592,-0.359,-0.3584,-0.3586,-0.3564,-0.3579,-0.3553,-0.3574,-0.3521,-0.3516,-0.357,-0.3569,-0.3569,-0.3569,0,0,-0.3231,-0.3321,-0.332,-0.3346,-0.3417,-0.3445,-0.3484,-0.3529,-0.3548,-0.3578,-0.3592,-0.3601,-0.3606,-0.3605,-0.3602,-0.3595,-0.3566,-0.3584,-0.3583,-0.3521,-0.3524,-0.3412,-0.3396,-0.3587,-0.3587,-0.3587,-0.3476,0,-0.321,-0.3257,-0.331,-0.3347,-0.3376,-0.3441,-0.3474,-0.3523,-0.3555,-0.3581,-0.3596,-0.3607,-0.3611,-0.3608,-0.3606,-0.3587,-0.3558,-0.3592,-0.3525,-0.3522,-0.341,-0.3389,-0.3257,-0.314,-0.3471,-0.347,-0.3469,0,-0.318,-0.3222,-0.3256,-0.3339,-0.3356,-0.3384,-0.3447,-0.3487,-0.3544,-0.357,-0.3598,-0.3611,-0.361,-0.3609,-0.3577,-0.36,-0.3555,-0.3534,-0.353,-0.3419,-0.3402,-0.318,-0.3118,-0.3096,-0.3461,-0.3462,-0.3463,0,-0.3096,-0.3176,-0.32,-0.3229,-0.3329,-0.3351,-0.3399,-0.347,-0.3504,-0.3556,-0.3574,-0.3596,-0.359,-0.3573,-0.3525,-0.3552,-0.3468,-0.3502,-0.3353,-0.3343,-0.3212,-0.3191,-0.3108,-0.3459,-0.3459,-0.3459,-0.3459,0,-0.3046,-0.306,-0.3163,-0.3175,-0.3205,-0.3297,-0.3331,-0.3387,-0.3461,-0.3487,-0.3552,-0.3558,-0.3583,-0.3545,-0.3511,-0.3395,-0.3451,-0.3331,-0.3307,-0.3209,-0.319,-0.315,-0.3181,-0.3455,-0.3456,-0.3457,-0.3457,0,-0.2933,-0.3004,-0.3037,-0.3137,-0.3164,-0.318,-0.3286,-0.3314,-0.34,-0.3432,-0.3445,-0.3512,-0.3463,-0.3447,-0.3393,-0.3348,-0.3199,-0.3208,-0.3064,-0.3025,-0.2875,-0.2912,-0.2786,-0.271,-0.3032,-0.3028,-0.3025,0,-0.2873,-0.2879,-0.2976,-0.2992,-0.3029,-0.3085,-0.3122,-0.325,-0.3291,-0.339,-0.3387,-0.3378,-0.3319,-0.3198,-0.3123,-0.3004,-0.3032,-0.2831,-0.2865,-0.2821,-0.2846,-0.288,-0.2829,-0.2686,-0.2681,-0.2676,-0.2673,0,-0.2744,-0.278,-0.2808,-0.2853,-0.2891,-0.2942,-0.3011,-0.3041,-0.318,-0.3203,-0.3204,-0.3162,-0.3073,-0.2904,-0.2777,-0.2709,-0.2758,-0.2734,-0.2739,-0.2595,-0.2577,-0.2506,-0.2791,-0.2633,-0.2637,-0.264,-0.2642,-0.2644,-0.262,-0.2612,-0.2655,-0.2683,-0.2733,-0.2759,-0.2756,-0.2843,-0.2864,-0.2884,-0.2948,-0.2851,-0.2763,-0.2561,-0.2484,-0.2342,-0.244,-0.2304,-0.2355,-0.2396,-0.2311,-0.248,-0.2275,-0.2277,-0.2279,-0.228,-0.2281,0,-0.2448,-0.2466,-0.2485,-0.2517,-0.2524,-0.2603,-0.2646,-0.261,-0.2579,-0.2617,-0.2577,-0.2473,-0.2291,-0.2246,-0.2108,-0.2009,-0.1986,-0.1983,-0.2024,-0.1994,-0.2165,-0.2139,-0.1835,-0.1835,-0.1835,-0.1835,-0.1835,-0.1835,-0.2356,-0.2309,-0.2334,-0.229,-0.2326,-0.2283,-0.2276,-0.2199,-0.2181,-0.206,-0.2047,-0.2042,-0.2028,-0.2119,-0.1963,-0.187,-0.1851,-0.1775,-0.183,-0.1995,-0.2031,-0.2065,-0.2047,-0.1728,-0.1728,-0.1583,-0.1582,-0.1581]},{"header":{"parameterUnit":"m.s-1","parameterCategory":2,"la1":30.2991,"la2":30.254,"lo1":-89.0895,"lo2":-89.0444,"dy":0.0017,"dx":0.0017,"nx":28,"ny":28,"refTime":"2024-12-17T03:00:00:Z","depth":"0","parameterNumber":3,"parameterNumberName":"V-component_of_CURRENTS"},"data":[0,0,0,0,0,0,0,0,0,0,0,0,0,0,0,0,0,0,0,0,0,0,0,0,0,0,0,0,0,0,0,0,0,0,0,0,0,0,0,0,0,0,0,0,0,0,0,0,0,0,0,0,0,0,0,0,0,0,-0.0384,-0.0382,0,-0.0229,-0.0227,-0.0225,-0.012,-0.0119,-0.0119,-0.0118,0.0067,0.0071,0.0076,0,0,0,0,0,0,0,0,0,0,0,0,0,-0.0494,-0.0493,-0.0384,-0.0382,-0.0381,-0.023,-0.0227,-0.0225,-0.012,-0.0119,-0.0118,-0.0118,0.0066,0.0071,0.0076,0,0,0,0,0,0,0,0,0,0,0,0,0,-0.0401,-0.0493,-0.0384,-0.0312,-0.0304,-0.023,-0.0227,-0.0224,-0.012,-0.0119,-0.0118,-0.0118,0.0064,0.007,0.0077,0.0103,0,0,0.0097,0.01,0,0,0,0,0,0,0,0,-0.0407,-0.0397,-0.0324,-0.0317,-0.0308,-0.0196,-0.0198,-0.0114,-0.012,-0.0187,-0.0118,-0.0117,-0.0021,-0.0007,0.0024,0.0112,0.012,0.0098,0.0102,0.0105,0.0107,0,0,0,0,0,0,0,-0.0413,-0.0402,-0.0319,-0.0323,-0.0313,-0.0256,-0.0242,-0.0181,-0.0107,-0.0181,-0.0173,-0.0161,-0.0015,0.0018,0.003,0.0123,0.0098,0.0104,0.0108,0.011,0.0268,0.0268,0,0,0,0,0,0,-0.0444,-0.0409,-0.0324,-0.0315,-0.036,-0.0255,-0.0239,-0.023,-0.0108,-0.009,-0.0162,-0.0157,0.0006,0.0022,0.0036,0.0082,0.0105,0.0111,0.0115,0.0268,0.0268,0.0268,0,0,0,0,0,0,-0.0447,-0.0438,-0.0331,-0.0361,-0.0343,-0.0255,-0.0244,-0.0227,-0.0195,-0.0095,-0.0075,-0.0147,0.0007,0.0027,0.0092,0.009,0.0114,0.012,0.0267,0.0268,0.0268,0.0169,0,0,0,0,0,0,-0.0451,-0.044,-0.0445,-0.0363,-0.0343,-0.0298,-0.0245,-0.0225,-0.019,-0.0181,-0.0076,-0.0057,0.0009,0.0082,0.0099,0.0099,0.0125,0.0267,0.0268,0.0268,0.0172,0.0165,0.016,0,0,0,0,0,-0.0456,-0.0467,-0.0446,-0.0436,-0.0352,-0.0299,-0.0283,-0.0214,-0.019,-0.0181,-0.0105,-0.0061,0.0096,0.0087,0.0108,0.011,0.0267,0.0268,0.0268,0.0174,0.0167,0.016,0,0,0,0,0,0,-0.0515,-0.0455,-0.043,-0.0423,-0.0371,-0.0282,-0.027,-0.0226,-0.0158,-0.0151,-0.0056,-0.0032,0.0022,0.008,0.0067,0.0157,0.0188,0.0192,0.011,0.0104,0.0098,0.0079,0.0131,0,0,0,0,0,-0.0535,-0.0528,-0.0459,-0.0454,-0.0434,-0.0356,-0.0327,-0.0282,-0.0213,-0.0182,-0.0108,-0.0029,0.0039,0.008,0.0146,0.0195,0.0258,0.0211,0.0205,0.0199,0.0198,0.029,0.0293,0.0269,0.0269,0.0269,0,0,-0.0557,-0.0524,-0.052,-0.0467,-0.0421,-0.0399,-0.0336,-0.0302,-0.0275,-0.0174,-0.0121,-0.0051,0.0046,0.0103,0.0132,0.0152,0.0237,0.02,0.0194,0.0196,0.0291,0.0293,0.0295,0.027,0.0269,0.0269,0,0,-0.06,-0.0572,-0.0578,-0.0543,-0.0489,-0.0439,-0.0437,-0.0356,-0.0313,-0.0257,-0.0177,-0.0109,-0.0008,0.0067,0.0117,0.0119,0.0197,0.0136,0.01,0.0189,0.0191,0.0195,0.0265,0.0275,0.014,0.0139,0.0139,0,-0.063,-0.0626,-0.0572,-0.0566,-0.0546,-0.0466,-0.0464,-0.0409,-0.0316,-0.0278,-0.0256,-0.0093,-0.0022,0.0067,0.0067,0.0105,0.0163,0.0114,0.018,0.0185,0.0189,0.0262,0.0274,0.0135,0.0135,0.0136,0.0136,0,-0.0667,-0.0667,-0.067,-0.0637,-0.0607,-0.0596,-0.052,-0.0483,-0.0429,-0.0359,-0.0271,-0.0166,-0.0067,-0.0036,0.0017,0.0088,0.012,0.0154,0.0191,0.0185,0.0262,0.0277,0.0128,0.013,0.0131,0.0132,0,0,-0.0726,-0.0703,-0.0703,-0.0706,-0.0646,-0.0626,-0.059,-0.0522,-0.0487,-0.0395,-0.0336,-0.0221,-0.0158,-0.0098,-0.0018,0.006,0.0134,0.0111,0.0118,0.0169,0.0323,0.0365,0.0386,0.0181,0.0183,0.0185,0.0358,0,-0.0771,-0.0796,-0.0759,-0.0773,-0.0779,-0.0704,-0.0675,-0.0602,-0.0522,-0.0445,-0.0322,-0.0242,-0.0181,-0.0139,-0.0051,0.0095,0.0171,0.0084,0.0332,0.0339,0.0369,0.0404,0.0449,0.0609,0.0373,0.0376,0.0377,0,-0.0814,-0.0828,-0.0859,-0.0845,-0.0839,-0.0829,-0.0766,-0.0725,-0.0596,-0.0532,-0.0423,-0.0322,-0.0189,-0.0148,0.0095,0.0037,0.0162,0.0272,0.0282,0.0368,0.041,0.0582,0.0646,0.0805,0.0401,0.0399,0.0398,0,-0.0885,-0.0892,-0.0925,-0.0921,-0.089,-0.0884,-0.0857,-0.0754,-0.0711,-0.0584,-0.0536,-0.036,-0.0263,-0.0087,0.0136,0.0118,0.0406,0.0415,0.0573,0.0577,0.0688,0.0698,0.0928,0.0576,0.0576,0.0575,0.0575,0,-0.0945,-0.0968,-0.0966,-0.0986,-0.1017,-0.0961,-0.0953,-0.0894,-0.0795,-0.0732,-0.0592,-0.0494,-0.0242,-0.0045,0.0134,0.0411,0.0413,0.0578,0.0634,0.0653,0.0657,0.086,0.0908,0.0582,0.058,0.0579,0.0578,0,-0.1012,-0.1009,-0.1052,-0.1052,-0.1054,-0.1075,-0.1039,-0.102,-0.0922,-0.0834,-0.0801,-0.0569,-0.0304,-0.005,0.0271,0.0421,0.0779,0.0756,0.0751,0.0802,0.1068,0.1107,0.1387,0.1491,0.0952,0.0954,0.0956,0,-0.1046,-0.1078,-0.1118,-0.1152,-0.1157,-0.1174,-0.118,-0.1097,-0.1059,-0.0864,-0.0821,-0.0556,-0.0329,0.0144,0.0458,0.0793,0.091,0.1006,0.0978,0.1106,0.1192,0.1212,0.128,0.1088,0.1091,0.1093,0.1095,0,-0.1112,-0.1127,-0.1164,-0.1246,-0.1277,-0.1297,-0.1289,-0.1274,-0.1144,-0.1023,-0.0801,-0.0602,-0.0147,0.0278,0.069,0.0888,0.1123,0.1062,0.1223,0.1342,0.1357,0.1475,0.093,0.1115,0.1113,0.1112,0.1111,0.111,-0.1151,-0.1203,-0.1259,-0.1327,-0.1369,-0.139,-0.1353,-0.1297,-0.1188,-0.0913,-0.0779,-0.0379,0.0125,0.073,0.0941,0.1371,0.1318,0.1498,0.1543,0.1557,0.1641,0.1121,0.1345,0.1344,0.1344,0.1343,0.1343,0,-0.1192,-0.1251,-0.1333,-0.1399,-0.144,-0.1438,-0.1388,-0.126,-0.1075,-0.0803,-0.0523,0.0095,0.0605,0.1063,0.1614,0.1839,0.1885,0.1952,0.2005,0.2058,0.1644,0.1633,0.1896,0.1896,0.1896,0.1896,0.1895,0.1895,-0.1214,-0.1299,-0.1347,-0.143,-0.146,-0.136,-0.1289,-0.1067,-0.0813,-0.0294,0.0124,0.0411,0.0959,0.1731,0.2225,0.2274,0.2461,0.2443,0.2542,0.2255,0.2215,0.2178,0.2182,0.2556,0.2557,0.2953,0.2957,0.296]}],[{"header":{"parameterUnit":"m.s-1","parameterCategory":2,"la1":30.2991,"la2":30.254,"lo1":-89.0895,"lo2":-89.0444,"dy":0.0017,"dx":0.0017,"nx":28,"ny":28,"refTime":"2024-12-17T03:00:00:Z","depth":"2","parameterNumber":2,"parameterNumberName":"U-component_of_CURRENTS"},"data":[0,0,0,0,0,0,0,0,0,0,0,0,0,0,0,0,0,0,0,0,0,0,0,0,0,0,0,0,0,0,0,0,0,0,0,0,0,0,0,0,0,0,0,0,0,0,0,0,0,0,0,0,0,0,0,0,0,0,-0.2936,-0.2936,0,-0.2987,-0.2987,-0.2988,-0.2949,-0.2947,-0.2946,-0.2944,-0.2922,-0.2923,-0.2924,0,0,0,0,0,0,0,0,0,0,0,0,0,-0.2819,-0.2821,-0.2936,-0.2936,-0.2937,-0.2987,-0.2987,-0.2988,-0.2949,-0.2947,-0.2945,-0.2944,-0.2922,-0.2923,-0.2924,0,0,0,0,0,0,0,0,0,0,0,0,0,-0.2868,-0.2822,-0.2935,-0.2925,-0.2925,-0.2987,-0.2987,-0.2988,-0.2949,-0.2947,-0.2945,-0.2943,-0.2921,-0.2923,-0.2924,-0.2976,0,0,-0.2927,-0.2928,0,0,0,0,0,0,0,0,-0.2865,-0.2872,-0.2926,-0.2926,-0.2926,-0.2961,-0.2938,-0.2981,-0.295,-0.2938,-0.2944,-0.2942,-0.2931,-0.2932,-0.2944,-0.2975,-0.2974,-0.2928,-0.2928,-0.2929,-0.2929,0,0,0,0,0,0,0,-0.2862,-0.287,-0.2953,-0.2927,-0.2927,-0.2924,-0.2928,-0.2946,-0.2943,-0.2939,-0.2936,-0.2947,-0.293,-0.2943,-0.2943,-0.2973,-0.2928,-0.2929,-0.2929,-0.293,-0.3002,-0.3003,0,0,0,0,0,0,-0.2862,-0.2867,-0.2952,-0.2955,-0.2892,-0.2928,-0.2932,-0.295,-0.2945,-0.2943,-0.2948,-0.2945,-0.2942,-0.2942,-0.2942,-0.2958,-0.2929,-0.293,-0.2931,-0.3001,-0.3002,-0.3003,0,0,0,0,0,0,-0.286,-0.287,-0.295,-0.2913,-0.2923,-0.2932,-0.2953,-0.2952,-0.2961,-0.2953,-0.2949,-0.2957,-0.294,-0.294,-0.2958,-0.2958,-0.293,-0.2932,-0.2999,-0.3001,-0.3003,-0.3018,0,0,0,0,0,0,-0.2857,-0.2869,-0.2882,-0.2914,-0.2925,-0.2977,-0.2955,-0.2955,-0.2972,-0.2967,-0.296,-0.2955,-0.2939,-0.2956,-0.2959,-0.2959,-0.2932,-0.2998,-0.3,-0.3002,-0.3016,-0.302,-0.3024,0,0,0,0,0,-0.2852,-0.2875,-0.2883,-0.2893,-0.2944,-0.2978,-0.2984,-0.2981,-0.2975,-0.298,-0.298,-0.2955,-0.2972,-0.2959,-0.2962,-0.2962,-0.2997,-0.2999,-0.3002,-0.3015,-0.302,-0.3024,0,0,0,0,0,0,-0.2832,-0.2875,-0.2883,-0.2918,-0.2944,-0.2972,-0.2981,-0.2991,-0.3,-0.2994,-0.2981,-0.2978,-0.299,-0.2988,-0.2974,-0.2991,-0.2977,-0.298,-0.2986,-0.299,-0.2994,-0.2984,-0.2933,0,0,0,0,0,-0.2838,-0.286,-0.2902,-0.2927,-0.2943,-0.2968,-0.2983,-0.2988,-0.3003,-0.3005,-0.3004,-0.3005,-0.3009,-0.3007,-0.3013,-0.3034,-0.3014,-0.3035,-0.3039,-0.3042,-0.3037,-0.3028,-0.303,-0.3012,-0.3012,-0.3012,0,0,-0.2836,-0.2863,-0.2875,-0.2923,-0.2942,-0.2968,-0.297,-0.2997,-0.3011,-0.3004,-0.3019,-0.3023,-0.3021,-0.3033,-0.3037,-0.3025,-0.3035,-0.3045,-0.3047,-0.3041,-0.3031,-0.3033,-0.3034,-0.3014,-0.3014,-0.3013,0,0,-0.2835,-0.287,-0.2883,-0.2912,-0.2949,-0.297,-0.2981,-0.3018,-0.3023,-0.3055,-0.3045,-0.3053,-0.3071,-0.306,-0.3059,-0.3095,-0.306,-0.3098,-0.3102,-0.3094,-0.3095,-0.3095,-0.3058,-0.3055,-0.3095,-0.3095,-0.3095,0,-0.2828,-0.2857,-0.2892,-0.2915,-0.2937,-0.2972,-0.2992,-0.3016,-0.3051,-0.3062,-0.3056,-0.3086,-0.3079,-0.3088,-0.309,-0.3099,-0.3083,-0.3081,-0.3097,-0.3097,-0.3097,-0.3058,-0.3055,-0.3096,-0.3096,-0.3095,-0.3095,0,-0.2834,-0.2863,-0.2875,-0.2914,-0.2944,-0.297,-0.3012,-0.3038,-0.3058,-0.3077,-0.3101,-0.3105,-0.3115,-0.3116,-0.3111,-0.3114,-0.3097,-0.3104,-0.3078,-0.3099,-0.3058,-0.3054,-0.3097,-0.3097,-0.3096,-0.3096,0,0,-0.2792,-0.2864,-0.2864,-0.2886,-0.2948,-0.2971,-0.3009,-0.3049,-0.3068,-0.31,-0.3116,-0.3129,-0.3135,-0.3135,-0.3133,-0.3124,-0.3101,-0.3113,-0.3112,-0.3063,-0.3062,-0.2963,-0.2948,-0.3113,-0.3113,-0.3113,-0.3026,0,-0.2778,-0.2816,-0.2859,-0.2894,-0.2919,-0.2975,-0.3007,-0.305,-0.3082,-0.3108,-0.3123,-0.3138,-0.3141,-0.3143,-0.3138,-0.3117,-0.3094,-0.3122,-0.306,-0.3057,-0.2957,-0.2942,-0.2732,-0.263,-0.3022,-0.3021,-0.3021,0,-0.2753,-0.2787,-0.2819,-0.2889,-0.2905,-0.2932,-0.2989,-0.3026,-0.3079,-0.3104,-0.3132,-0.3147,-0.3147,-0.3145,-0.3112,-0.3132,-0.3094,-0.3072,-0.3069,-0.2967,-0.2951,-0.2677,-0.2607,-0.3013,-0.3014,-0.3015,-0.3015,0,-0.2685,-0.2753,-0.2775,-0.28,-0.2886,-0.2908,-0.2951,-0.3015,-0.3046,-0.3098,-0.3117,-0.3137,-0.3133,-0.3114,-0.3074,-0.3094,-0.302,-0.3041,-0.2913,-0.2905,-0.2706,-0.268,-0.3003,-0.3003,-0.3003,-0.3003,-0.3004,0,-0.2644,-0.2658,-0.2746,-0.2758,-0.2785,-0.2865,-0.2898,-0.2949,-0.3015,-0.3034,-0.3103,-0.3104,-0.3127,-0.3096,-0.3064,-0.296,-0.3009,-0.2896,-0.2874,-0.2705,-0.2681,-0.3009,-0.301,-0.3,-0.3001,-0.3001,-0.3002,0,-0.2551,-0.2613,-0.2642,-0.2728,-0.2752,-0.2768,-0.2859,-0.2881,-0.2964,-0.2989,-0.3004,-0.3066,-0.3023,-0.3018,-0.2966,-0.2922,-0.285,-0.2799,-0.2584,-0.2539,-0.2742,-0.2746,-0.2647,-0.2643,-0.264,-0.2637,-0.2634,0,-0.2502,-0.2509,-0.2592,-0.2604,-0.2637,-0.2686,-0.2714,-0.2827,-0.2857,-0.2946,-0.2938,-0.2941,-0.2882,-0.2781,-0.2709,-0.2609,-0.2723,-0.2375,-0.2377,-0.2716,-0.2705,-0.2715,-0.2724,-0.2113,-0.2106,-0.2101,-0.2097,0,-0.2396,-0.2428,-0.2452,-0.2483,-0.2513,-0.2551,-0.2606,-0.2623,-0.2741,-0.2757,-0.2749,-0.271,-0.2638,-0.2438,-0.2343,-0.2272,-0.2381,-0.2262,-0.2652,-0.2248,-0.2208,-0.22,-0.2226,-0.2049,-0.2053,-0.2057,-0.206,-0.2062,-0.2295,-0.2286,-0.2319,-0.2331,-0.2369,-0.2375,-0.2337,-0.241,-0.241,-0.2385,-0.2479,-0.2345,-0.233,-0.2054,-0.195,-0.1888,-0.2057,-0.1978,-0.1996,-0.202,-0.1986,-0.1943,-0.1726,-0.1728,-0.1731,-0.1733,-0.1735,0,-0.215,-0.2156,-0.2163,-0.2168,-0.2134,-0.2211,-0.2221,-0.214,-0.2064,-0.209,-0.2038,-0.1803,-0.1666,-0.1665,-0.1485,-0.146,-0.1465,-0.141,-0.1418,-0.1465,-0.1507,-0.1449,-0.1045,-0.1043,-0.1041,-0.104,0,0,-0.2072,-0.2021,-0.2027,-0.1918,-0.1915,-0.1785,-0.1739,-0.1655,-0.1618,-0.1495,-0.1432,-0.1541,-0.1579,-0.1304,-0.1251,-0.1112,-0.1274,-0.1055,-0.1603,-0.1654,-0.1694,-0.1823,-0.1785,0,0,0,0,0]},{"header":{"parameterUnit":"m.s-1","parameterCategory":2,"la1":30.2991,"la2":30.254,"lo1":-89.0895,"lo2":-89.0444,"dy":0.0017,"dx":0.0017,"nx":28,"ny":28,"refTime":"2024-12-17T03:00:00:Z","depth":"2","parameterNumber":3,"parameterNumberName":"V-component_of_CURRENTS"},"data":[0,0,0,0,0,0,0,0,0,0,0,0,0,0,0,0,0,0,0,0,0,0,0,0,0,0,0,0,0,0,0,0,0,0,0,0,0,0,0,0,0,0,0,0,0,0,0,0,0,0,0,0,0,0,0,0,0,0,-0.0358,-0.0357,0,-0.0231,-0.0229,-0.0228,-0.0137,-0.0137,-0.0136,-0.0136,0.0022,0.0025,0.0029,0,0,0,0,0,0,0,0,0,0,0,0,0,-0.0445,-0.0445,-0.0358,-0.0357,-0.0355,-0.0231,-0.0229,-0.0227,-0.0138,-0.0137,-0.0136,-0.0136,0.0021,0.0025,0.0029,0,0,0,0,0,0,0,0,0,0,0,0,0,-0.037,-0.0444,-0.0358,-0.0297,-0.0291,-0.0232,-0.0229,-0.0227,-0.0138,-0.0137,-0.0136,-0.0136,0.0019,0.0025,0.003,0.005,0,0,0.0047,0.005,0,0,0,0,0,0,0,0,-0.0374,-0.0366,-0.0308,-0.0302,-0.0294,-0.0202,-0.0202,-0.0134,-0.0138,-0.0193,-0.0136,-0.0135,-0.0052,-0.0041,-0.0015,0.0057,0.0064,0.0048,0.0051,0.0053,0.0055,0,0,0,0,0,0,0,-0.038,-0.0371,-0.0305,-0.0306,-0.0298,-0.025,-0.0239,-0.0188,-0.0126,-0.0188,-0.0182,-0.0172,-0.0048,-0.0021,-0.0011,0.0066,0.0048,0.0053,0.0056,0.0058,0.0188,0.0188,0,0,0,0,0,0,-0.0405,-0.0376,-0.0309,-0.0302,-0.0336,-0.025,-0.0237,-0.023,-0.0127,-0.0111,-0.0173,-0.0169,-0.0031,-0.0018,-0.0005,0.0036,0.0053,0.0059,0.0062,0.0188,0.0188,0.0188,0,0,0,0,0,0,-0.0408,-0.0401,-0.0314,-0.0338,-0.0324,-0.025,-0.0242,-0.0228,-0.0201,-0.0116,-0.0099,-0.0161,-0.003,-0.0013,0.0041,0.0042,0.0061,0.0066,0.0188,0.0188,0.0188,0.011,0,0,0,0,0,0,-0.0411,-0.0402,-0.0407,-0.034,-0.0324,-0.0288,-0.0243,-0.0226,-0.0197,-0.019,-0.0101,-0.0085,-0.0028,0.0032,0.0047,0.005,0.0071,0.0188,0.0188,0.0188,0.0112,0.0107,0.0103,0,0,0,0,0,-0.0414,-0.0425,-0.0408,-0.04,-0.0332,-0.0289,-0.0276,-0.0218,-0.0198,-0.019,-0.0127,-0.0088,0.0044,0.0037,0.0054,0.0059,0.0188,0.0188,0.0188,0.0115,0.0108,0.0103,0,0,0,0,0,0,-0.0465,-0.0416,-0.0395,-0.0391,-0.0348,-0.0275,-0.0265,-0.0228,-0.0172,-0.0166,-0.0085,-0.0065,-0.0019,0.0029,0.002,0.0097,0.0122,0.0125,0.006,0.0055,0.005,0.0036,0.0075,0,0,0,0,0,-0.0482,-0.0477,-0.042,-0.0418,-0.0402,-0.0337,-0.0313,-0.0276,-0.0218,-0.0193,-0.013,-0.0063,-0.0005,0.0031,0.0085,0.0128,0.0178,0.0142,0.0137,0.0133,0.0134,0.0206,0.0208,0.0189,0.0189,0.0189,0,0,-0.0502,-0.0475,-0.0472,-0.0429,-0.0392,-0.0373,-0.032,-0.0293,-0.027,-0.0186,-0.014,-0.0082,0.0,0.0049,0.0075,0.0092,0.0163,0.0133,0.0129,0.0132,0.0206,0.0208,0.021,0.0189,0.0189,0.0189,0,0,-0.0539,-0.0517,-0.0523,-0.0494,-0.045,-0.0408,-0.0406,-0.0339,-0.0302,-0.0255,-0.0188,-0.0129,-0.0045,0.0022,0.0064,0.0067,0.013,0.008,0.0055,0.0124,0.0126,0.0129,0.0185,0.0193,0.0085,0.0085,0.0085,0,-0.0566,-0.0563,-0.0518,-0.0514,-0.0497,-0.0431,-0.043,-0.0383,-0.0305,-0.0274,-0.0254,-0.0117,-0.0054,0.0023,0.0026,0.0057,0.0101,0.0067,0.0117,0.0121,0.0125,0.0182,0.0192,0.0081,0.0082,0.0082,0.0082,0,-0.0598,-0.0598,-0.0601,-0.0574,-0.055,-0.0541,-0.0477,-0.0446,-0.04,-0.0342,-0.0267,-0.0174,-0.0091,-0.0062,-0.0015,0.0047,0.0069,0.0095,0.0127,0.0122,0.0183,0.0195,0.0076,0.0077,0.0078,0.0079,0,0,-0.0651,-0.063,-0.0631,-0.0633,-0.0583,-0.0568,-0.0536,-0.048,-0.0455,-0.0373,-0.0325,-0.022,-0.0166,-0.0114,-0.0043,0.0025,0.0086,0.0065,0.007,0.0112,0.0232,0.0254,0.0269,0.0119,0.0121,0.0122,0.026,0,-0.069,-0.0711,-0.0679,-0.0692,-0.0697,-0.0634,-0.061,-0.055,-0.0485,-0.0423,-0.0312,-0.0244,-0.0185,-0.0148,-0.0072,0.0048,0.0115,0.0046,0.0239,0.0245,0.0258,0.0283,0.0239,0.0359,0.0272,0.0274,0.0275,0,-0.0728,-0.0739,-0.0766,-0.0756,-0.0751,-0.0744,-0.0696,-0.0662,-0.0556,-0.0504,-0.0411,-0.0322,-0.0205,-0.0163,0.0039,-0.0009,0.01,0.0193,0.0201,0.0258,0.0289,0.0354,0.0384,0.0296,0.0294,0.0292,0.0291,0,-0.079,-0.0796,-0.0825,-0.0821,-0.0796,-0.0793,-0.0772,-0.069,-0.0659,-0.0552,-0.0514,-0.0365,-0.0285,-0.0131,0.0061,0.005,0.0284,0.0294,0.042,0.0422,0.0443,0.0444,0.0433,0.0433,0.0433,0.0432,0.0432,0,-0.0842,-0.0863,-0.0861,-0.0878,-0.0909,-0.0861,-0.0863,-0.0816,-0.0738,-0.0696,-0.0564,-0.0488,-0.0273,-0.011,0.0052,0.0277,0.0281,0.0424,0.0466,0.0414,0.0411,0.0402,0.0396,0.0438,0.0437,0.0436,0.0435,0,-0.0901,-0.0898,-0.0935,-0.0937,-0.0942,-0.0963,-0.0941,-0.0932,-0.0851,-0.0791,-0.0761,-0.0569,-0.0353,-0.0132,0.0136,0.0266,0.0475,0.0553,0.047,0.05,0.0565,0.0554,0.0699,0.0701,0.0702,0.0704,0.0705,0,-0.0931,-0.0958,-0.0995,-0.1028,-0.1034,-0.1054,-0.1065,-0.1001,-0.0976,-0.0828,-0.0797,-0.0583,-0.0405,-0.0011,0.025,0.0537,0.0546,0.0652,0.0626,0.057,0.0596,0.0582,0.0569,0.0622,0.0623,0.0623,0.0623,0,-0.099,-0.1003,-0.1036,-0.1112,-0.1145,-0.117,-0.1171,-0.1169,-0.1072,-0.0984,-0.0819,-0.0664,-0.0294,0.0021,0.0372,0.0534,0.0597,0.0668,0.066,0.0552,0.0507,0.0529,0.0517,0.0627,0.0626,0.0626,0.0626,0.0626,-0.1027,-0.1073,-0.1123,-0.1188,-0.1232,-0.1263,-0.1272,-0.1233,-0.1168,-0.1005,-0.0847,-0.0572,-0.0296,0.0218,0.0455,0.0671,0.0675,0.0727,0.0722,0.0718,0.0675,0.0634,0.077,0.077,0.077,0.0771,0.0771,0,-0.107,-0.112,-0.1194,-0.1261,-0.1314,-0.1317,-0.132,-0.1284,-0.1192,-0.1,-0.0797,-0.0445,-0.0092,0.0201,0.054,0.0736,0.0713,0.0764,0.069,0.0686,0.0683,0.0635,0.0721,0.0722,0.0722,0.0722,0,0,-0.1092,-0.1169,-0.121,-0.1306,-0.1352,-0.1385,-0.138,-0.1296,-0.1157,-0.0937,-0.0712,-0.0426,-0.0075,0.0155,0.0395,0.0567,0.0572,0.0581,0.06,0.0478,0.0472,0.0642,0.0562,0,0,0,0,0]}],[{"header":{"parameterUnit":"m.s-1","parameterCategory":2,"la1":30.2991,"la2":30.254,"lo1":-89.0895,"lo2":-89.0444,"dy":0.0017,"dx":0.0017,"nx":28,"ny":28,"refTime":"2024-12-17T03:00:00:Z","depth":"4","parameterNumber":2,"parameterNumberName":"U-component_of_CURRENTS"},"data":[0,0,0,0,0,0,0,0,0,0,0,0,0,0,0,0,0,0,0,0,0,0,0,0,0,0,0,0,0,0,0,0,0,0,0,0,0,0,0,0,0,0,0,0,0,0,0,0,0,0,0,0,0,0,0,0,0,0,-0.2036,-0.2037,0,-0.2116,-0.2116,-0.2117,-0.2153,-0.2153,-0.2153,-0.2153,-0.2219,-0.2221,-0.2223,0,0,0,0,0,0,0,0,0,0,0,0,0,-0.1918,-0.192,-0.2035,-0.2037,-0.2038,-0.2115,-0.2116,-0.2117,-0.2153,-0.2153,-0.2153,-0.2153,-0.2219,-0.2221,-0.2223,0,0,0,0,0,0,0,0,0,0,0,0,0,-0.1979,-0.192,-0.2035,-0.2066,-0.207,-0.2115,-0.2116,-0.2118,-0.2153,-0.2153,-0.2153,-0.2153,-0.2218,-0.2221,-0.2223,-0.2238,0,0,-0.2231,-0.2232,0,0,0,0,0,0,0,0,-0.1976,-0.1983,-0.2061,-0.2064,-0.2068,-0.2126,-0.2099,-0.2158,-0.2153,-0.212,-0.2153,-0.2154,-0.2188,-0.2193,-0.2206,-0.2241,-0.2244,-0.2231,-0.2233,-0.2234,-0.2235,0,0,0,0,0,0,0,-0.1971,-0.198,-0.2066,-0.2062,-0.2067,-0.2078,-0.2086,-0.211,-0.2151,-0.2123,-0.2126,-0.2137,-0.219,-0.2203,-0.2208,-0.2245,-0.2231,-0.2234,-0.2235,-0.2236,-0.2354,-0.2356,0,0,0,0,0,0,-0.1965,-0.1976,-0.2063,-0.2068,-0.2023,-0.208,-0.2089,-0.2106,-0.2151,-0.2159,-0.2137,-0.2139,-0.2199,-0.2205,-0.221,-0.2281,-0.2234,-0.2236,-0.2238,-0.2352,-0.2354,-0.2356,0,0,0,0,0,0,-0.1962,-0.1972,-0.206,-0.2025,-0.2037,-0.2082,-0.21,-0.2108,-0.2154,-0.2163,-0.2169,-0.218,-0.2199,-0.2206,-0.226,-0.2281,-0.2238,-0.224,-0.2351,-0.2353,-0.2355,-0.2389,0,0,0,0,0,0,-0.1958,-0.197,-0.1998,-0.2024,-0.2039,-0.2101,-0.2101,-0.2109,-0.216,-0.2163,-0.2201,-0.2205,-0.22,-0.2256,-0.2262,-0.2284,-0.2242,-0.2349,-0.2352,-0.2354,-0.2386,-0.2392,-0.2398,0,0,0,0,0,-0.1954,-0.1982,-0.1999,-0.2011,-0.207,-0.2102,-0.2111,-0.2141,-0.2162,-0.2184,-0.2216,-0.2206,-0.2279,-0.226,-0.2267,-0.229,-0.2347,-0.2351,-0.2354,-0.2383,-0.2391,-0.2397,0,0,0,0,0,0,-0.1949,-0.1989,-0.2009,-0.205,-0.2083,-0.2109,-0.2141,-0.2164,-0.2209,-0.2225,-0.2232,-0.2239,-0.229,-0.2294,-0.2272,-0.2334,-0.2309,-0.2315,-0.2329,-0.2336,-0.2342,-0.2329,-0.2244,0,0,0,0,0,-0.1961,-0.1992,-0.2028,-0.2065,-0.2085,-0.2123,-0.215,-0.2172,-0.2206,-0.2228,-0.2256,-0.2285,-0.2306,-0.2326,-0.2346,-0.2387,-0.2365,-0.2406,-0.2412,-0.2417,-0.2412,-0.2403,-0.2407,-0.2368,-0.2368,-0.2368,0,0,-0.1971,-0.1998,-0.2018,-0.2067,-0.2098,-0.2128,-0.214,-0.2188,-0.222,-0.2227,-0.2293,-0.2313,-0.2324,-0.2363,-0.2386,-0.2371,-0.2417,-0.2421,-0.2425,-0.2417,-0.2407,-0.241,-0.2413,-0.237,-0.237,-0.2369,0,0,-0.1985,-0.2032,-0.2055,-0.2086,-0.2138,-0.2159,-0.2182,-0.2232,-0.2263,-0.2323,-0.2331,-0.2366,-0.2417,-0.2416,-0.2422,-0.2478,-0.245,-0.2494,-0.2512,-0.2504,-0.2507,-0.2508,-0.2481,-0.248,-0.2495,-0.2495,-0.2495,0,-0.1999,-0.2032,-0.2068,-0.2097,-0.2128,-0.2176,-0.2207,-0.2245,-0.2309,-0.2335,-0.2351,-0.2421,-0.2433,-0.2459,-0.2475,-0.2488,-0.2476,-0.2481,-0.2509,-0.2511,-0.2512,-0.2484,-0.2482,-0.2497,-0.2497,-0.2497,-0.2497,0,-0.2012,-0.2058,-0.2077,-0.2127,-0.2165,-0.2204,-0.2253,-0.2304,-0.2354,-0.2383,-0.2445,-0.2467,-0.25,-0.2513,-0.2512,-0.2533,-0.2519,-0.2516,-0.2484,-0.2517,-0.2486,-0.2484,-0.25,-0.25,-0.2499,-0.2498,0,0,-0.1987,-0.2071,-0.208,-0.2113,-0.2188,-0.2215,-0.2278,-0.2333,-0.2372,-0.2438,-0.2478,-0.2521,-0.254,-0.2548,-0.2556,-0.2552,-0.2549,-0.2544,-0.2542,-0.2503,-0.2522,-0.236,-0.2342,-0.2555,-0.2555,-0.2555,-0.2494,0,-0.1988,-0.2041,-0.2086,-0.2148,-0.218,-0.2248,-0.2296,-0.2357,-0.2412,-0.2463,-0.2496,-0.2539,-0.2551,-0.2573,-0.2574,-0.2559,-0.2546,-0.2565,-0.2507,-0.2504,-0.2345,-0.2335,-0.2556,-0.2492,-0.2491,-0.2491,-0.2491,0,-0.197,-0.2014,-0.2073,-0.2159,-0.2181,-0.2229,-0.2313,-0.2364,-0.2439,-0.2482,-0.2532,-0.256,-0.2582,-0.2583,-0.2568,-0.2584,-0.2556,-0.2537,-0.2534,-0.2366,-0.2338,-0.2455,-0.2486,-0.2486,-0.2487,-0.2487,-0.2487,0,-0.1907,-0.1998,-0.2048,-0.2079,-0.2183,-0.223,-0.2289,-0.2373,-0.2413,-0.2494,-0.2524,-0.2565,-0.2581,-0.2571,-0.2545,-0.2562,-0.2504,-0.2518,-0.2342,-0.2331,-0.2482,-0.248,-0.249,-0.249,-0.249,-0.2491,-0.2491,0,-0.1865,-0.1908,-0.2031,-0.2057,-0.2116,-0.2206,-0.2271,-0.2335,-0.2416,-0.2438,-0.2529,-0.253,-0.2581,-0.2561,-0.2538,-0.2415,-0.2497,-0.2326,-0.2297,-0.2498,-0.25,-0.2479,-0.2479,-0.2488,-0.2489,-0.2489,-0.249,0,-0.1776,-0.1861,-0.1924,-0.2048,-0.2088,-0.2132,-0.2251,-0.2281,-0.2382,-0.241,-0.2435,-0.2503,-0.2466,-0.2482,-0.2444,-0.2374,-0.2296,-0.2234,-0.2432,-0.2419,-0.2132,-0.2135,-0.2024,-0.2018,-0.2012,-0.2008,-0.2004,0,-0.1728,-0.1756,-0.1896,-0.193,-0.1991,-0.2076,-0.2118,-0.2244,-0.2267,-0.2359,-0.2341,-0.236,-0.2379,-0.2183,-0.2235,-0.2158,-0.214,-0.2092,-0.2123,-0.2097,-0.2082,-0.2093,-0.2103,-0.1995,-0.1994,-0.1993,-0.1991,0,-0.1631,-0.1702,-0.1752,-0.1824,-0.1885,-0.1938,-0.2011,-0.2009,-0.2123,-0.2241,-0.2168,-0.2135,-0.2083,-0.205,-0.1999,-0.1956,-0.2121,-0.2035,-0.2047,-0.2076,-0.2062,-0.2054,-0.207,-0.1972,-0.1975,-0.1977,-0.1978,0,-0.1555,-0.1567,-0.1642,-0.1683,-0.1757,-0.1757,-0.1823,-0.183,-0.1868,-0.1977,-0.1942,-0.1968,-0.204,-0.1942,-0.1898,-0.1836,-0.1819,-0.177,-0.1795,-0.1817,-0.1779,-0.1732,-0.1494,0,0,0,0,0,-0.1465,-0.1456,-0.1488,-0.1521,-0.1587,-0.1619,-0.1721,-0.1789,-0.1902,-0.1789,-0.1859,-0.1801,-0.1729,-0.1756,-0.1646,-0.1816,-0.1835,-0.1684,-0.1796,-0.1868,-0.189,-0.1867,0,0,0,0,0,0,-0.1402,-0.1429,-0.1433,-0.1369,-0.1354,-0.1398,-0.145,-0.1533,-0.1488,-0.1611,-0.1576,-0.1679,-0.1636,-0.174,-0.1598,-0.1607,-0.1639,-0.1722,-0.1717,-0.1856,-0.1876,-0.1893,-0.1877,0,0,0,0,0]},{"header":{"parameterUnit":"m.s-1","parameterCategory":2,"la1":30.2991,"la2":30.254,"lo1":-89.0895,"lo2":-89.0444,"dy":0.0017,"dx":0.0017,"nx":28,"ny":28,"refTime":"2024-12-17T03:00:00:Z","depth":"4","parameterNumber":3,"parameterNumberName":"V-component_of_CURRENTS"},"data":[0,0,0,0,0,0,0,0,0,0,0,0,0,0,0,0,0,0,0,0,0,0,0,0,0,0,0,0,0,0,0,0,0,0,0,0,0,0,0,0,0,0,0,0,0,0,0,0,0,0,0,0,0,0,0,0,0,0,-0.0259,-0.0258,0,-0.0179,-0.0178,-0.0177,-0.0117,-0.0117,-0.0117,-0.0116,-0.0001,0.0002,0.0005,0,0,0,0,0,0,0,0,0,0,0,0,0,-0.0305,-0.0305,-0.0259,-0.0258,-0.0257,-0.0179,-0.0178,-0.0177,-0.0117,-0.0117,-0.0116,-0.0116,-0.0002,0.0002,0.0005,0,0,0,0,0,0,0,0,0,0,0,0,0,-0.026,-0.0305,-0.0259,-0.0219,-0.0215,-0.018,-0.0178,-0.0176,-0.0117,-0.0117,-0.0116,-0.0116,-0.0003,0.0001,0.0005,0.002,0,0,0.0018,0.002,0,0,0,0,0,0,0,0,-0.0262,-0.0258,-0.0226,-0.0222,-0.0217,-0.0159,-0.0152,-0.011,-0.0118,-0.0152,-0.0116,-0.0116,-0.0052,-0.0044,-0.0028,0.0025,0.003,0.0018,0.0021,0.0023,0.0024,0,0,0,0,0,0,0,-0.0266,-0.0261,-0.0225,-0.0225,-0.022,-0.0188,-0.0181,-0.0144,-0.0104,-0.0149,-0.0145,-0.014,-0.0049,-0.0032,-0.0025,0.0032,0.0018,0.0022,0.0024,0.0026,0.012,0.0121,0,0,0,0,0,0,-0.0283,-0.0264,-0.0228,-0.0223,-0.0241,-0.0188,-0.018,-0.0177,-0.0105,-0.0095,-0.014,-0.0137,-0.0039,-0.003,-0.002,0.001,0.0022,0.0026,0.0029,0.012,0.012,0.0121,0,0,0,0,0,0,-0.0284,-0.0281,-0.0231,-0.0243,-0.0235,-0.0188,-0.0185,-0.0176,-0.0161,-0.0099,-0.0087,-0.0135,-0.0038,-0.0026,0.0012,0.0014,0.0028,0.0032,0.012,0.012,0.012,0.0065,0,0,0,0,0,0,-0.0286,-0.0282,-0.0289,-0.0244,-0.0235,-0.0216,-0.0185,-0.0175,-0.0159,-0.0154,-0.0091,-0.0079,-0.0037,0.0005,0.0016,0.002,0.0035,0.012,0.012,0.012,0.0067,0.0063,0.006,0,0,0,0,0,-0.0288,-0.0299,-0.029,-0.0285,-0.0245,-0.0217,-0.0209,-0.0172,-0.0159,-0.0156,-0.0111,-0.0081,0.0014,0.0009,0.0021,0.0027,0.012,0.012,0.012,0.0068,0.0064,0.006,0,0,0,0,0,0,-0.0322,-0.0293,-0.0282,-0.0283,-0.0257,-0.0208,-0.0205,-0.0181,-0.0143,-0.014,-0.0081,-0.0066,-0.0033,0.0003,-0.0004,0.0054,0.0072,0.0075,0.0028,0.0024,0.0021,0.0009,0.0039,0,0,0,0,0,-0.0336,-0.0337,-0.0301,-0.0304,-0.0295,-0.0253,-0.0239,-0.0215,-0.0176,-0.0159,-0.0114,-0.0066,-0.0023,0.0004,0.0043,0.0075,0.0112,0.0087,0.0084,0.0081,0.008,0.0135,0.0136,0.0121,0.0121,0.0121,0,0,-0.0352,-0.0336,-0.0337,-0.0312,-0.029,-0.0279,-0.0243,-0.0228,-0.0214,-0.0153,-0.0123,-0.008,-0.0019,0.0017,0.0036,0.0049,0.0103,0.0081,0.0078,0.0079,0.0135,0.0137,0.0138,0.0121,0.0121,0.0121,0,0,-0.038,-0.0371,-0.0378,-0.0361,-0.0335,-0.0307,-0.0308,-0.0264,-0.0239,-0.0209,-0.0159,-0.0115,-0.0055,-0.0003,0.003,0.0031,0.0078,0.0041,0.0023,0.0076,0.0078,0.008,0.0121,0.0127,0.0046,0.0046,0.0046,0,-0.0401,-0.0405,-0.0377,-0.0376,-0.0368,-0.0325,-0.0328,-0.0296,-0.0244,-0.0224,-0.0209,-0.011,-0.0061,-0.0002,0.0002,0.0024,0.0056,0.0032,0.0071,0.0074,0.0077,0.0119,0.0126,0.0043,0.0044,0.0044,0.0044,0,-0.0426,-0.0433,-0.0437,-0.0424,-0.041,-0.0408,-0.0365,-0.0346,-0.0317,-0.0277,-0.0223,-0.0151,-0.0091,-0.0066,-0.0029,0.0019,0.0034,0.0054,0.0078,0.0075,0.0119,0.0128,0.0039,0.004,0.0041,0.0042,0,0,-0.0464,-0.0457,-0.0461,-0.0467,-0.0437,-0.043,-0.0411,-0.0376,-0.0363,-0.0303,-0.0272,-0.0188,-0.0149,-0.011,-0.0053,0.0002,0.005,0.0032,0.0036,0.0067,0.0159,0.0136,0.0144,0.0075,0.0076,0.0077,0.0178,0,-0.0493,-0.0515,-0.0497,-0.0515,-0.0521,-0.0483,-0.047,-0.0432,-0.0389,-0.0348,-0.0261,-0.0213,-0.0164,-0.0136,-0.0075,0.0017,0.0072,0.002,0.0163,0.0167,0.0142,0.0152,0.0082,0.0185,0.0187,0.0189,0.019,0,-0.0519,-0.0533,-0.0561,-0.0565,-0.0564,-0.0568,-0.0546,-0.0525,-0.0454,-0.0418,-0.0349,-0.0282,-0.0189,-0.0152,0.0004,-0.0034,0.0054,0.0128,0.0134,0.0139,0.016,0.0193,0.0206,0.0205,0.0204,0.0203,0.0202,0,-0.0559,-0.0575,-0.0605,-0.0606,-0.0601,-0.0609,-0.0602,-0.0552,-0.0536,-0.0461,-0.0437,-0.0322,-0.0262,-0.0139,0.0012,0.0007,0.0183,0.0197,0.0264,0.0263,0.0278,0.0275,0.0308,0.0308,0.0308,0.0308,0.0307,0,-0.0589,-0.0614,-0.0634,-0.065,-0.0689,-0.0662,-0.0681,-0.0652,-0.0606,-0.0582,-0.048,-0.0427,-0.0256,-0.0132,-0.0,0.0154,0.0175,0.0262,0.029,0.0251,0.0244,0.0284,0.028,0.0311,0.0311,0.031,0.0309,0,-0.062,-0.0632,-0.0673,-0.0696,-0.071,-0.0737,-0.0747,-0.0749,-0.07,-0.0665,-0.0643,-0.05,-0.0341,-0.0166,0.0044,0.0131,0.0286,0.034,0.0279,0.0302,0.0332,0.0324,0.0412,0.0412,0.0412,0.0412,0.0412,0,-0.0634,-0.066,-0.072,-0.0757,-0.0775,-0.0812,-0.0834,-0.0804,-0.0792,-0.0701,-0.0677,-0.0526,-0.0414,-0.0129,0.0041,0.0278,0.0314,0.0379,0.036,0.0325,0.0344,0.0336,0.0328,0.0412,0.0412,0.0412,0.0412,0,-0.0662,-0.0691,-0.0727,-0.081,-0.0856,-0.0894,-0.0915,-0.0913,-0.0858,-0.0822,-0.0682,-0.0526,-0.0346,-0.0129,0.0055,0.0226,0.0323,0.038,0.0381,0.0364,0.0327,0.0344,0.0336,0.0412,0.0412,0.0412,0.0412,0,-0.0684,-0.0723,-0.0781,-0.0846,-0.0913,-0.0948,-0.0957,-0.0919,-0.0893,-0.0778,-0.0734,-0.0524,-0.0398,-0.0154,0.0017,0.0175,0.0211,0.0248,0.0257,0.0258,0.0178,0.0105,0.0149,0,0,0,0,0,-0.0696,-0.0742,-0.0812,-0.0879,-0.0945,-0.0975,-0.0993,-0.0982,-0.0934,-0.0839,-0.0778,-0.0599,-0.0329,-0.0203,-0.0047,-0.0005,0.0214,0.0178,0.0255,0.0413,0.0413,0.0342,0,0,0,0,0,0,-0.0706,-0.0774,-0.081,-0.0888,-0.0937,-0.0995,-0.1007,-0.0976,-0.0903,-0.0833,-0.0676,-0.0584,-0.0313,-0.0413,-0.0048,-0.0001,0.0062,0.0313,0.0315,0.0414,0.0413,0.0413,0.034,0,0,0,0,0]}]]